Weather History for Windom, MN

Change the Weather History Date:

Saturday, February 22, 2014

  Actual Average Record
Temperature  
Mean Temperature 12 °F -  
Max Temperature 21 °F 35 °F 52 °F (1991)
Min Temperature 3 °F 15 °F -14 °F (1955)
Degree Days  
Heating Degree Days 53    
Moisture  
Dew Point 5 °F    
Average Humidity 75    
Maximum Humidity 85    
Minimum Humidity 62    
Precipitation  
Precipitation 0.00 in - - ()
Sea Level Pressure  
Sea Level Pressure 29.99 in    
Wind  
Wind Speed 10 mph (West)    
Max Wind Speed 15 mph    
Max Gust Speed -    
Visibility 10 miles    
Events      
Averages and records for this station are not official NWS values.
T = Trace of Precipitation, MM = Missing Value Source: NWS Daily Summary

Daily Weather History Graph

Daily Weather History Graph

Search for Another Location

Airport:

Trip Planner

Search our weather history database for the weather conditions in past years. The results will help you decide how hot, cold, wet, or windy it might be!

Date:

Astronomy

Feb. 22, 2014 Rise Set
Actual Time 7:08 AM CST 5:59 PM CST
Civil Twilight 6:39 AM CST 6:29 PM CST
Nautical Twilight 6:06 AM CST 7:02 PM CST
Astronomical Twilight 5:32 AM CST 7:35 PM CST
Moon 1:09 AM CST 11:06 AM CST
Length of Visible Light 11h 49m
Length of Day
10h 51m
Waning Gibbous, 50% of the Moon is Illuminated
Feb 22
Waning Gibbous
Mar 1
New
Mar 8
First Quarter
Mar 16
Full
Mar 23
Last Quarter

Hourly Weather History & Observations

Time (CST) Temp. Windchill Dew Point Humidity Pressure Visibility Wind Dir Wind Speed Gust Speed Precip Events Conditions
12:13 AM 10.4 °F -5.4 °F 5.0 °F 79% 29.83 in 10.0 mi WNW 13.8 mph - N/A   Clear
12:32 AM 12.2 °F -2.5 °F 5.0 °F 73% 29.83 in 10.0 mi WNW 12.7 mph - N/A   Clear
12:52 AM 12.2 °F -2.5 °F 3.2 °F 67% 29.83 in 10.0 mi WNW 12.7 mph - N/A   Clear
1:13 AM 10.4 °F -4.8 °F 3.2 °F 73% 29.83 in 10.0 mi WNW 12.7 mph - N/A   Clear
1:33 AM 10.4 °F -3.3 °F 3.2 °F 73% 29.84 in 10.0 mi WNW 10.4 mph - N/A   Clear
1:52 AM 8.6 °F -3.7 °F 1.4 °F 73% 29.85 in 10.0 mi West 8.1 mph - N/A   Clear
2:13 AM 8.6 °F -5.5 °F 1.4 °F 73% 29.86 in 10.0 mi West 10.4 mph - N/A   Clear
2:33 AM 8.6 °F -2.6 °F 1.4 °F 73% 29.87 in 10.0 mi WSW 6.9 mph - N/A   Clear
2:52 AM 8.6 °F -2.6 °F 1.4 °F 73% 29.86 in 10.0 mi WNW 6.9 mph - N/A   Clear
3:13 AM 6.8 °F -5.9 °F 1.4 °F 79% 29.86 in 10.0 mi WNW 8.1 mph - N/A   Clear
3:33 AM 6.8 °F -5.9 °F 1.4 °F 79% 29.88 in 10.0 mi WSW 8.1 mph - N/A   Clear
3:52 AM 6.8 °F -4.8 °F 1.4 °F 79% 29.89 in 10.0 mi WSW 6.9 mph - N/A   Clear
4:13 AM 6.8 °F -4.8 °F 1.4 °F 79% 29.89 in 10.0 mi West 6.9 mph - N/A   Clear
4:33 AM 6.8 °F -5.9 °F 1.4 °F 79% 29.89 in 10.0 mi West 8.1 mph - N/A   Clear
4:52 AM 5.0 °F -8.1 °F -0.4 °F 78% 29.90 in 10.0 mi WSW 8.1 mph - N/A   Clear
5:13 AM 5.0 °F -6.9 °F -0.4 °F 78% 29.91 in 10.0 mi WSW 6.9 mph - N/A   Clear
5:33 AM 3.2 °F -12.2 °F -0.4 °F 85% 29.93 in 10.0 mi WSW 10.4 mph - N/A   Clear
5:52 AM 5.0 °F -8.1 °F -0.4 °F 78% 29.93 in 10.0 mi West 8.1 mph - N/A   Mostly Cloudy
6:13 AM 6.8 °F -6.9 °F 1.4 °F 79% 29.93 in 10.0 mi West 9.2 mph - N/A   Overcast
6:33 AM 6.8 °F -5.9 °F 1.4 °F 79% 29.94 in 10.0 mi West 8.1 mph - N/A   Overcast
6:52 AM 6.8 °F -4.8 °F 1.4 °F 79% 29.94 in 10.0 mi West 6.9 mph - N/A   Mostly Cloudy
7:13 AM 6.8 °F -3.5 °F 1.4 °F 79% 29.94 in 10.0 mi West 5.8 mph - N/A   Scattered Clouds
7:32 AM 6.8 °F -4.8 °F 1.4 °F 79% 29.95 in 10.0 mi West 6.9 mph - N/A   Clear
7:52 AM 6.8 °F -5.9 °F -0.4 °F 72% 29.97 in 10.0 mi WSW 8.1 mph - N/A   Clear
8:12 AM 6.8 °F -5.9 °F 1.4 °F 79% 29.97 in 10.0 mi West 8.1 mph - N/A   Clear
8:32 AM 8.6 °F -3.7 °F 1.4 °F 73% 29.98 in 10.0 mi West 8.1 mph - N/A   Clear
8:53 AM 8.6 °F -6.3 °F 1.4 °F 73% 29.99 in 10.0 mi WSW 11.5 mph - N/A   Clear
9:12 AM 10.4 °F -4.1 °F 1.4 °F 67% 29.98 in 10.0 mi West 11.5 mph - N/A   Clear
9:32 AM 10.4 °F -4.8 °F 3.2 °F 73% 29.99 in 10.0 mi West 12.7 mph - N/A   Clear
9:53 AM 12.2 °F -1.8 °F 3.2 °F 67% 29.99 in 10.0 mi West 11.5 mph - N/A   Clear
10:12 AM 12.2 °F -1.0 °F 3.2 °F 67% 29.99 in 10.0 mi West 10.4 mph - N/A   Clear
10:32 AM 12.2 °F -2.5 °F 5.0 °F 73% 29.99 in 10.0 mi West 12.7 mph - N/A   Clear
10:53 AM 14.0 °F 0.5 °F 5.0 °F 67% 29.99 in 10.0 mi West 11.5 mph - N/A   Clear
11:12 AM 15.8 °F 2.1 °F 5.0 °F 62% 30.00 in 10.0 mi West 12.7 mph - N/A   Clear
11:32 AM 15.8 °F 2.1 °F 6.8 °F 68% 30.00 in 10.0 mi West 12.7 mph - N/A   Clear
11:53 AM 17.6 °F 5.0 °F 6.8 °F 63% 30.00 in 10.0 mi West 11.5 mph - N/A   Clear
12:12 PM 17.6 °F 3.2 °F 8.6 °F 68% 30.01 in 10.0 mi West 15.0 mph - N/A   Clear
12:32 PM 17.6 °F 3.2 °F 8.6 °F 68% 30.00 in 10.0 mi WNW 15.0 mph - N/A   Clear
12:53 PM 17.6 °F 3.7 °F 8.6 °F 68% 30.00 in 10.0 mi West 13.8 mph - N/A   Clear
1:12 PM 19.4 °F 6.0 °F 10.4 °F 68% 30.00 in 10.0 mi West 13.8 mph - N/A   Clear
1:33 PM 17.6 °F 3.2 °F 10.4 °F 73% 30.00 in 10.0 mi West 15.0 mph - N/A   Clear
1:53 PM 19.4 °F 7.2 °F 10.4 °F 68% 30.00 in 10.0 mi West 11.5 mph - N/A   Clear
2:12 PM 19.4 °F 5.5 °F 10.4 °F 68% 29.99 in 10.0 mi West 15.0 mph - N/A   Clear
2:33 PM 19.4 °F 6.6 °F 10.4 °F 68% 29.99 in 10.0 mi West 12.7 mph - N/A   Clear
2:53 PM 19.4 °F 5.5 °F 12.2 °F 74% 30.00 in 10.0 mi West 15.0 mph - N/A   Clear
3:12 PM 21.2 °F 8.9 °F 12.2 °F 68% 30.00 in 10.0 mi West 12.7 mph - N/A   Clear
3:32 PM 21.2 °F 8.3 °F 12.2 °F 68% 30.01 in 10.0 mi West 13.8 mph - N/A   Scattered Clouds
3:52 PM 21.2 °F 7.8 °F 12.2 °F 68% 30.02 in 10.0 mi West 15.0 mph - N/A   Mostly Cloudy
4:13 PM 21.2 °F 7.8 °F 12.2 °F 68% 30.02 in 10.0 mi WNW 15.0 mph - N/A   Scattered Clouds
4:32 PM 21.2 °F 10.1 °F 12.2 °F 68% 30.02 in 10.0 mi West 10.4 mph - N/A   Clear
4:52 PM 19.4 °F 7.2 °F 12.2 °F 74% 30.02 in 10.0 mi West 11.5 mph - N/A   Clear
5:13 PM 19.4 °F 7.2 °F 10.4 °F 68% 30.02 in 10.0 mi West 11.5 mph - N/A   Scattered Clouds
5:33 PM 17.6 °F 5.0 °F 10.4 °F 73% 30.03 in 10.0 mi West 11.5 mph - N/A   Mostly Cloudy
5:52 PM 15.8 °F 3.4 °F 10.4 °F 79% 30.04 in 10.0 mi West 10.4 mph - N/A   Scattered Clouds
6:13 PM 14.0 °F 2.0 °F 8.6 °F 79% 30.05 in 10.0 mi West 9.2 mph - N/A   Clear
6:31 PM 12.2 °F 0.7 °F 8.6 °F 85% 30.06 in 10.0 mi WNW 8.1 mph - N/A   Clear
6:41 PM 14.0 °F 5.1 °F 8.6 °F 79% 30.07 in 10.0 mi WNW 5.8 mph - N/A   Clear
6:55 PM 12.2 °F - 6.8 °F 79% 30.07 in 10.0 mi Calm Calm - N/A   Clear
7:13 PM 10.4 °F - 6.8 °F 85% 30.08 in 10.0 mi Calm Calm - N/A   Clear
7:33 PM 10.4 °F - 6.8 °F 85% 30.09 in 10.0 mi Calm Calm - N/A   Clear
7:52 PM 8.6 °F - 3.2 °F 79% 30.09 in 10.0 mi Calm Calm - N/A   Clear
8:13 PM 8.6 °F -3.7 °F 5.0 °F 85% 30.09 in 10.0 mi WNW 8.1 mph - N/A   Clear
8:33 PM 10.4 °F -2.4 °F 6.8 °F 85% 30.09 in 10.0 mi NW 9.2 mph - N/A   Clear
8:52 PM 10.4 °F -2.4 °F 6.8 °F 85% 30.11 in 10.0 mi WNW 9.2 mph - N/A   Clear
9:13 PM 10.4 °F -3.3 °F 6.8 °F 85% 30.11 in 10.0 mi WNW 10.4 mph - N/A   Clear
9:33 PM 8.6 °F -4.7 °F 5.0 °F 85% 30.13 in 10.0 mi WNW 9.2 mph - N/A   Clear
9:52 PM 8.6 °F -4.7 °F 3.2 °F 79% 30.14 in 10.0 mi West 9.2 mph - N/A   Clear
10:13 PM 6.8 °F -5.9 °F 3.2 °F 85% 30.14 in 10.0 mi WNW 8.1 mph - N/A   Clear
10:33 PM 6.8 °F -6.9 °F 3.2 °F 85% 30.14 in 10.0 mi West 9.2 mph - N/A   Clear
10:52 PM 8.6 °F -7.0 °F 3.2 °F 79% 30.14 in 10.0 mi WNW 12.7 mph - N/A   Clear
11:13 PM 8.6 °F -5.5 °F 3.2 °F 79% 30.15 in 10.0 mi West 10.4 mph - N/A   Clear
11:33 PM 6.8 °F -7.8 °F 1.4 °F 79% 30.15 in 10.0 mi West 10.4 mph - N/A   Clear
11:52 PM 6.8 °F -8.6 °F 3.2 °F 85% 30.15 in 10.0 mi WNW 11.5 mph - N/A   Clear